Location: Pedimozza
(42.0500°N, 9.3500°E)
Time: 23:47:12
(UTC+00:00)

Aureole 2 Rocket - Pass Details

Date: 19 August 2019
Orbit: 315 x 477 km, 73.9° (Epoch: 17 September)

Event Time Altitude Azimuth Distance (km) Brightness Sun altitude
Rises 20:30:20 0° 331° (NNW) 2,078 7.0 -22.0°
Reaches altitude 10° 20:32:22 10° 321° (NW) 1,231 5.7 -22.3°
Enters shadow 20:33:56 25° 295° (WNW) 688 4.0 -22.5°
